Mankato, MN

3:28 PM CST on December 06, 2019 (GMT -0600)
Mankato Regional

Weather History for KMKT - November, 2019

Change the Weather History Date:

Thursday, November 14, 2019

  Actual Average Record
Temperature  
Mean Temperature 26 °F -  
Max Temperature 32 °F 40 °F 66 °F (2001)
Min Temperature 19 °F 26 °F 3 °F (2014)
Degree Days  
Heating Degree Days 40    
Moisture  
Dew Point 19 °F    
Average Humidity 79    
Maximum Humidity 92    
Minimum Humidity 69    
Precipitation  
Precipitation 0.00 in - - ()
Sea Level Pressure  
Sea Level Pressure 30.27 in    
Wind  
Wind Speed 9 mph ()    
Max Wind Speed 14 mph    
Max Gust Speed -    
Visibility 10.0 miles    
Events Snow    
Averages and records for this station are not official NWS values.
T = Trace of Precipitation, MM = Missing Value Source: Averaged Metar Reports

Daily Weather History Graph

Daily Weather History Graph

Search for Another Location

Airport or City:

Astronomy

Nov. 14, 2019 Rise Set
Actual Time 7:09 AM CST 4:50 PM CST
Civil Twilight 6:38 AM CST 5:21 PM CST
Nautical Twilight 6:03 AM CST 5:56 PM CST
Astronomical Twilight 5:29 AM CST 6:30 PM CST
Moon 6:33 PM CST (11/14) 9:08 AM CST (11/14)
Length of Visible Light 10h 42m
Length of Day
9h 40m
Waning Gibbous, 95% of the Moon is Illuminated
Nov 14
Waning Gibbous
Nov 19
Last Quarter
Nov 26
New
Dec 4
First Quarter
Dec 11
Full

Hourly Weather History & Observations

Time (CST) Temp. Windchill Dew Point Humidity Pressure Visibility Wind Dir Wind Speed Gust Speed Precip Events Conditions
12:56 AM 19.9 °F 9.3 °F 17.1 °F 89% 30.18 in 10.0 mi NW 9.2 mph - N/A   Overcast
1:56 AM 21.0 °F 12.4 °F 18.0 °F 88% 30.20 in 10.0 mi WNW 6.9 mph - N/A   Overcast
2:56 AM 21.9 °F 11.0 °F 17.1 °F 82% 30.21 in 10.0 mi NW 10.4 mph - N/A   Overcast
3:56 AM 21.0 °F 9.9 °F 17.1 °F 85% 30.23 in 10.0 mi NW 10.4 mph - N/A   Overcast
4:56 AM 21.0 °F 9.9 °F 17.1 °F 85% 30.26 in 10.0 mi NW 10.4 mph - N/A   Overcast
5:56 AM 21.0 °F 9.9 °F 16.0 °F 81% 30.27 in 10.0 mi NW 10.4 mph - N/A   Overcast
6:56 AM 19.9 °F 9.3 °F 15.1 °F 81% 30.29 in 10.0 mi NW 9.2 mph - N/A   Overcast
7:56 AM 19.0 °F 6.1 °F 14.0 °F 81% 30.32 in 10.0 mi NW 12.7 mph - N/A   Overcast
8:56 AM 19.0 °F 7.5 °F 14.0 °F 81% 30.33 in 9.0 mi West 10.4 mph - 0.00 in Snow Light Snow
9:56 AM 19.9 °F 6.7 °F 15.1 °F 81% 30.34 in 10.0 mi West 13.8 mph - 0.00 in   Overcast
10:54 AM 21.2 °F 10.9 °F 15.8 °F 80% 30.29 in 10.0 mi West 9.2 mph - N/A   Mostly Cloudy
10:56 AM 21.9 °F 12.5 °F 15.1 °F 75% 30.35 in 10.0 mi West 8.1 mph - N/A   Mostly Cloudy
11:14 AM 23.0 °F 12.4 °F 15.8 °F 74% 30.27 in 10.0 mi WSW 10.4 mph - N/A   Scattered Clouds
11:56 AM 26.1 °F 15.0 °F 18.0 °F 71% 30.32 in 10.0 mi WSW 12.7 mph - N/A   Partly Cloudy
12:56 PM 27.0 °F 15.6 °F 18.0 °F 69% 30.33 in 10.0 mi West 13.8 mph - N/A   Clear
1:56 PM 28.9 °F 19.2 °F 19.9 °F 69% 30.30 in 10.0 mi WSW 11.5 mph - N/A   Clear
2:56 PM 30.0 °F 20.0 °F 21.0 °F 69% 30.28 in 10.0 mi SW 12.7 mph - N/A   Clear
3:56 PM 30.9 °F 21.2 °F 21.9 °F 69% 30.27 in 10.0 mi SSW 12.7 mph - N/A   Overcast
4:56 PM 30.0 °F 21.1 °F 21.9 °F 72% 30.25 in 10.0 mi SSW 10.4 mph - N/A   Clear
5:56 PM 28.9 °F 20.4 °F 21.9 °F 75% 30.25 in 10.0 mi SSW 9.2 mph - N/A   Clear
6:56 PM 30.0 °F 21.7 °F 24.1 °F 79% 30.25 in 10.0 mi SSW 9.2 mph - N/A   Clear
7:56 PM 32.0 °F 23.6 °F 25.0 °F 75% 30.25 in 10.0 mi SW 10.4 mph - N/A   Clear
8:56 PM 30.9 °F 22.8 °F 26.1 °F 82% 30.26 in 10.0 mi SSW 9.2 mph - N/A   Clear
9:56 PM 30.9 °F 22.2 °F 26.1 °F 82% 30.26 in 10.0 mi SW 10.4 mph - N/A   Clear
10:56 PM 30.9 °F 22.8 °F 27.0 °F 85% 30.27 in 10.0 mi SW 9.2 mph - N/A   Clear
11:56 PM 30.0 °F 22.4 °F 28.0 °F 92% 30.28 in 10.0 mi SW 8.1 mph - N/A   Clear